User: anonymous   Login
Location: Gugi
(45.4667°N, 11.1000°E)
Time: 14:41:23
(UTC+00:00)
Language:

SL-16 R/B - Orbit

View from above orbital plane
View from above orbital plane
View from above satellite
View from above satellite

Ground track
Ground track

The orbit data is extracted from the following two-line orbital elements,

1 31793U 07029B   20021.05926965  .00000112  00000-0  83448-4 0  9993
2 31793  70.9722 198.0815 0001922 252.3022 246.7745 14.14421188648742
Epoch (UTC): 21 January 2020 01:25:20
Eccentricity: 0.0001922
inclination: 70.9722°
perigee height: 843 km
apogee height: 845 km
right ascension of ascending node: 198.0815°
argument of perigee: 252.3022°
revolutions per day: 14.14421188
mean anomaly at epoch: 246.7745°
orbit number at epoch: 64874

The dashed part of the orbit path shows where the satellite is in the earth's shadow,  

DLR